This is the latest recevied weather packets stored in our database for station/object KE5AKC. If no packets are shown the sender has not sent any weather packets the latest 10 day(s).
| Time | Temp. | Humidity | Pressure | Rain* | Wind** | Luminosity | Snow |
|---|---|---|---|---|---|---|---|
| 1777590516 | 21.67° C | 83% | 1009 hPa | 0 mm | - | 85 W/m² | - |
| 1777590212 | 22.22° C | 83% | 1009 hPa | 0 mm | - | 94 W/m² | - |
| 1777589910 | 22.22° C | 83% | 1009 hPa | 0 mm | - | 134 W/m² | - |
| 1777589605 | 22.22° C | 84% | 1009 hPa | 0 mm | - | 148 W/m² | - |
| 1777589304 | 22.22° C | 82% | 1008.6 hPa | 0 mm | - | 176 W/m² | - |
| 1777589000 | 22.22° C | 82% | 1009 hPa | 0 mm | - | 183 W/m² | - |
| 1777588696 | 22.78° C | 81% | 1009 hPa | 0 mm | - | 207 W/m² | - |
| 1777588392 | 22.78° C | 80% | 1008.6 hPa | 0 mm | - | 224 W/m² | - |
| 1777588088 | 22.78° C | 80% | 1008.6 hPa | 0 mm | - | 298 W/m² | - |
| 1777587779 | 22.78° C | 81% | 1008.6 hPa | 0 mm | - | 327 W/m² | - |
| 1777587477 | 23.33° C | 80% | 1008.3 hPa | 0 mm | - | 190 W/m² | - |
| 1777587174 | 23.33° C | 80% | 1008.3 hPa | 0 mm | - | 294 W/m² | - |
| 1777586869 | 23.89° C | 78% | 1008.6 hPa | 0 mm | - | 274 W/m² | - |
| 1777586565 | 23.89° C | 79% | 1008.6 hPa | 0 mm | - | 468 W/m² | - |
| 1777586261 | 23.89° C | 78% | 1008.6 hPa | 0 mm | - | 322 W/m² | - |
| 1777585958 | 23.89° C | 79% | 1008.3 hPa | 0 mm | - | 350 W/m² | - |
| 1777585654 | 23.89° C | 79% | 1008.6 hPa | 0 mm | - | 359 W/m² | - |
| 1777585349 | 23.33° C | 80% | 1009 hPa | 0 mm | - | 299 W/m² | - |
| 1777585044 | 23.89° C | 79% | 1008.6 hPa | 0 mm | - | 207 W/m² | - |
| 1777584740 | 23.33° C | 79% | 1009 hPa | 0 mm | - | 195 W/m² | - |
| 1777584439 | 23.89° C | 79% | 1009 hPa | 0 mm | - | 192 W/m² | - |
| 1777584134 | 23.89° C | 77% | 1009 hPa | 0 mm | - | 187 W/m² | - |
| 1777583834 | 23.89° C | 77% | 1009.7 hPa | 0 mm | - | 202 W/m² | - |
| 1777583530 | 23.89° C | 77% | 1009.7 hPa | 0 mm | - | 213 W/m² | - |
| 1777583224 | 24.44° C | 77% | 1010 hPa | 0 mm | - | 230 W/m² | - |
* Rain latest hour (hover to see other rain measurements)
** Current wind speed in m/s (hover to see current wind gust speed)